CW9203 Weather Reports


Display with metric or nautical units.
time (UTC)temp
F
wind
direction
speed
MPH
gust
MPH
rain 1hr
in
rain 24hr
in
rain mn
in
humidity
%
barometer
mb
20260507193805 64 354 3.0 8.0 0.00 0.00 0.00 4 1017.8
20260507193305 64 15 2.0 12.0 0.00 0.00 0.00 4 1017.8
20260507191804 63 321 2.0 7.0 0.00 0.00 0.00 4 1018.3
20260507191306 63 338 2.0 5.0 0.00 0.00 0.00 4 1018.4
20260507184305 64 345 3.0 7.0 0.00 0.00 0.00 4 1018.2
20260507183805 64 14 2.0 9.0 0.00 0.00 0.00 4 1018.2
20260507183304 64 345 1.0 7.0 0.00 0.00 0.00 4 1018.1
20260507181805 64 337 2.0 7.0 0.00 0.00 0.00 4 1018.3
20260507181304 64 346 2.0 7.0 0.00 0.00 0.00 4 1018.4
20260507175804 64 20 2.0 8.0 0.00 0.00 0.00 4 1018.5
20260507175307 64 3 4.0 10.0 0.00 0.00 0.00 4 1018.5
20260507174305 64 12 3.0 14.0 0.00 0.00 0.00 4 1018.3
20260507172805 64 354 3.0 12.0 0.00 0.00 0.00 4 1018.4
20260507172307 64 2 2.0 7.0 0.00 0.00 0.00 4 1018.5
20260507171806 64 7 3.0 12.0 0.00 0.00 0.00 4 1018.6
20260507171305 64 359 3.0 6.0 0.00 0.00 0.00 4 1018.7
20260507164806 64 10 4.0 10.0 0.00 0.00 0.00 4 1018.7
20260507163304 64 353 2.0 8.0 0.00 0.00 0.00 4 1018.9
20260507162805 64 330 2.0 6.0 0.00 0.00 0.00 4 1019.0
20260507162307 64 337 1.0 3.0 0.00 0.00 0.00 4 1019.1
20260507161805 64 331 2.0 17.0 0.00 0.00 0.00 4 1019.2
20260507161306 64 335 1.0 6.0 0.00 0.00 0.00 4 1019.2
20260507160304 64 339 2.0 9.0 0.00 0.00 0.00 4 1019.3
20260507154805 64 346 1.0 8.0 0.00 0.00 0.00 4 1019.3
20260507154305 64 358 1.0 10.0 0.00 0.00 0.00 4 1019.4
20260507153304 64 342 2.0 7.0 0.00 0.00 0.00 4 1019.5
20260507152807 64 331 2.0 6.0 0.00 0.00 0.00 4 1019.5
20260507152306 64 356 2.0 8.0 0.00 0.00 0.00 4 1019.6
20260507151305 64 346 3.0 8.0 0.00 0.00 0.00 4 1019.6
20260507150805 64 350 2.0 3.0 0.00 0.00 0.00 4 1019.6
20260507150305 64 341 2.0 12.0 0.00 0.00 0.00 4 1019.7
20260507145804 64 353 3.0 12.0 0.00 0.00 0.00 4 1019.8
20260507144304 64 7 3.0 12.0 0.00 0.00 0.00 4 1020.0
20260507143805 64 336 2.0 9.0 0.00 0.00 0.00 4 1020.2
20260507143307 64 3 2.0 9.0 0.00 0.00 0.00 4 1020.3
20260507142805 64 343 2.0 10.0 0.00 0.00 0.00 4 1020.4
20260507142307 64 0 3.0 12.0 0.00 0.00 0.00 4 1020.5
20260507140305 64 335 1.0 6.0 0.00 0.00 0.00 4 1020.7
20260507135306 64 3 2.0 8.0 0.00 0.00 0.00 4 1020.7
20260507134805 64 1 2.0 7.0 0.00 0.00 0.00 4 1020.9
20260507134305 64 309 1.0 6.0 0.00 0.00 0.00 4 1021.1
20260507132805 64 334 3.0 8.0 0.00 0.00 0.00 4 1021.2
20260507131304 64 341 1.0 3.0 0.00 0.00 0.00 4 1021.2
20260507130305 64 353 1.0 6.0 0.00 0.00 0.00 4 1021.3
20260507125805 64 359 2.0 6.0 0.00 0.00 0.00 4 1021.3
20260507125307 64 339 1.0 6.0 0.00 0.00 0.00 4 1021.3
20260507124805 64 322 1.0 3.0 0.00 0.00 0.00 4 1021.3
20260507124305 64 350 2.0 3.0 0.00 0.00 0.00 4 1021.3
20260507123806 65 314 2.0 14.0 0.00 0.01 0.00 4 1021.3
20260507123306 65 321 2.0 6.0 0.00 0.01 0.00 4 1021.3
20260507120822 65 335 1.0 3.0 0.00 0.02 0.00 4 1021.4
20260507120307 64 345 1.0 3.0 0.00 0.02 0.00 4 1021.5
20260507115805 64 334 1.0 8.0 0.00 0.02 0.02 4 1021.5
20260507112805 64 314 1.0 8.0 0.00 0.03 0.02 4 1021.9
20260507111304 64 311 1.0 5.0 0.00 0.03 0.02 4 1021.9
20260507110304 64 323 2.0 7.0 0.00 0.03 0.02 4 1021.9
20260507105805 64 343 2.0 5.0 0.00 0.03 0.02 4 1021.9
20260507104807 65 349 1.0 8.0 0.00 0.03 0.02 4 1022.0
20260507104304 65 352 1.0 7.0 0.00 0.03 0.02 4 1022.1
20260507103305 65 341 2.0 7.0 0.00 0.03 0.02 4 1022.2
20260507101804 65 2 1.0 5.0 0.00 0.03 0.02 4 1022.3
20260507100805 65 340 2.0 3.0 0.00 0.03 0.02 4 1022.4
20260507093805 65 336 2.0 9.0 0.00 0.03 0.02 4 1022.2
20260507093304 65 349 3.0 12.0 0.00 0.03 0.02 4 1022.1
20260507091805 65 4 3.0 16.0 0.00 0.03 0.02 4 1021.9
20260507090304 65 4 5.0 16.0 0.00 0.03 0.02 4 1021.7
20260507083806 65 11 4.0 10.0 0.00 0.03 0.02 4 1021.3
20260507081305 65 14 5.0 12.0 0.00 0.03 0.02 4 1021.6
20260507080306 65 10 3.0 12.0 0.00 0.03 0.02 4 1021.8
20260507075805 65 18 5.0 12.0 0.00 0.03 0.02 4 1021.8
20260507073305 65 19 3.0 12.0 0.00 0.03 0.02 4 1021.9
20260507072307 65 357 2.0 7.0 0.00 0.03 0.02 4 1022.2
20260507071807 66 354 2.0 5.0 0.00 0.03 0.02 4 1022.2
20260507065805 66 325 1.0 6.0 0.00 0.03 0.02 4 1022.3
20260507064805 66 335 2.0 6.0 0.00 0.03 0.02 4 1022.4
20260507063305 66 341 2.0 5.0 0.00 0.03 0.02 4 1022.6
20260507062804 66 322 2.0 5.0 0.00 0.03 0.02 4 1022.5
20260507061306 66 331 1.0 3.0 0.00 0.03 0.02 4 1022.4
20260507060805 66 355 3.0 9.0 0.00 0.03 0.02 4 1022.3
20260507060307 66 345 3.0 10.0 0.00 0.03 0.02 4 1022.4
20260507055306 66 340 1.0 3.0 0.00 0.03 0.02 4 1022.4
20260507054804 66 343 1.0 5.0 0.00 0.03 0.02 4 1022.4
20260507052306 66 349 2.0 7.0 0.00 0.03 0.02 4 1022.4
20260507051805 66 334 1.0 6.0 0.00 0.03 0.02 4 1022.5
20260507051305 67 342 3.0 9.0 0.00 0.03 0.02 4 1022.5
20260507044305 67 345 3.0 8.0 0.00 0.03 0.02 4 1022.6
20260507043305 68 345 3.0 10.0 0.00 0.03 0.02 4 1022.6
20260507042307 68 344 3.0 10.0 0.00 0.03 0.02 4 1022.7
20260507041805 68 354 4.0 15.0 0.00 0.03 0.02 4 1022.9
20260507035306 68 11 2.0 8.0 0.00 0.03 0.02 4 1022.9
20260507032805 69 13 3.0 12.0 0.00 0.03 0.02 10 1022.9
20260507032306 69 13 5.0 16.0 0.00 0.03 0.02 19 1022.9
20260507031804 70 5 5.0 12.0 0.00 0.03 0.02 24 1022.9
20260507030806 69 352 3.0 13.0 0.00 0.03 0.02 28 1022.9
20260507025306 69 3 12.0 23.0 0.00 0.03 0.02 26 1022.8
20260507022306 70 13 4.0 14.0 0.00 0.03 0.02 34 1023.5
20260507020804 70 315 3.0 15.0 0.00 0.03 0.02 39 1023.6
20260507020305 70 336 2.0 9.0 0.00 0.03 0.02 40 1023.5
20260507015306 71 332 5.0 16.0 0.00 0.03 0.02 47 1023.6
20260507014305 71 300 2.0 6.0 0.00 0.03 0.02 40 1023.7
20260507013804 71 333 2.0 6.0 0.00 0.03 0.02 43 1023.7
20260507013304 71 320 2.0 6.0 0.00 0.03 0.02 42 1023.8
20260507012306 71 334 3.0 12.0 0.00 0.03 0.02 31 1023.9
20260507011305 71 344 5.0 13.0 0.00 0.03 0.02 32 1024.1
20260507010804 70 327 2.0 13.0 0.00 0.03 0.02 28 1024.2
20260507010305 70 354 5.0 12.0 0.00 0.03 0.02 33 1024.2
20260507005805 70 342 5.0 15.0 0.00 0.03 0.02 34 1024.2
20260507004804 71 323 3.0 12.0 0.00 0.03 0.02 26 1024.3
20260507003305 70 310 4.0 13.0 0.00 0.03 0.02 20 1024.6
20260507002805 70 330 3.0 15.0 0.00 0.03 0.02 17 1024.7
20260507000306 70 334 5.0 13.0 0.00 0.03 0.02 4 1024.6
20260506235805 70 331 3.0 12.0 0.00 0.03 0.02 4 1024.6
20260506235306 70 351 6.0 13.0 0.00 0.03 0.02 4 1024.6
20260506233307 70 353 4.0 15.0 0.00 0.03 0.02 4 1024.8
20260506231305 70 305 4.0 13.0 0.00 0.03 0.02 4 1025.0
20260506230805 70 342 1.0 9.0 0.00 0.03 0.02 4 1025.0
20260506230305 70 2 7.0 15.0 0.00 0.03 0.02 4 1025.0
20260506225804 70 352 2.0 8.0 0.00 0.03 0.02 4 1025.1
20260506223304 69 335 3.0 8.0 0.00 0.03 0.02 4 1025.1
20260506222306 69 338 5.0 13.0 0.00 0.03 0.02 4 1025.2
20260506221305 69 356 7.0 18.0 0.00 0.03 0.02 4 1025.1
20260506220304 69 8 4.0 13.0 0.00 0.03 0.02 4 1025.3
20260506215307 68 346 5.0 13.0 0.00 0.03 0.02 16 1025.5
20260506214805 68 8 6.0 13.0 0.00 0.03 0.02 22 1025.5
20260506213805 68 18 5.0 14.0 0.00 0.03 0.02 25 1025.6
20260506212805 68 355 5.0 12.0 0.00 0.03 0.02 4 1025.7
20260506211305 67 19 6.0 12.0 0.00 0.03 0.02 4 1025.8
20260506210804 67 23 5.0 13.0 0.00 0.03 0.02 7 1025.9
20260506205306 67 29 6.0 10.0 0.00 0.03 0.02 7 1025.9
20260506204307 67 7 5.0 9.0 0.00 0.03 0.02 4 1026.0
20260506203804 67 44 4.0 12.0 0.00 0.03 0.02 4 1026.0
20260506202806 67 26 3.0 10.0 0.00 0.03 0.02 4 1026.0
20260506202306 67 357 5.0 8.0 0.00 0.03 0.02 4 1026.0
20260506201805 67 358 4.0 7.0 0.00 0.03 0.02 4 1026.1
20260506200304 65 34 3.0 7.0 0.00 0.03 0.02 4 1026.0
20260506195805 65 9 2.0 6.0 0.00 0.03 0.02 4 1026.0